ENT462 EPKT-LICA

Flight info

Callsign ENT462
Flight time N/A
Altitude 38000
Route TUSIN DCT UPLAV DCT LEDVA DCT TISKO/N0452F370 DCT PETOV/N0452F380 DCT VELUG/N0447F370 DCT KUTID DCT EVINO DCT ARBUM
Aircraft B738/M-SDFGHIJ1RWXY/EB1

Departure

Time 2026-04-30 13:50
Airport Katowice Wojciech Korfanty International Airport (EPKT)

Arrival

Time N/A
Airport Lamezia Terme Sant'Eufemia International Airport (LICA)
Time Latitude Longitude Altitude Speed Heading
2026-04-30 13:23 50.47143 19.07965 984 ft 0 kts 180°
2026-04-30 13:41 50.47147 19.07965 992 ft 2 kts 180°
2026-04-30 13:41 50.47167 19.07966 992 ft 3 kts 182°
2026-04-30 13:41 50.47187 19.07967 993 ft 3 kts 182°
2026-04-30 13:42 50.47207 19.07967 992 ft 3 kts 175°
2026-04-30 13:42 50.47226 19.07962 994 ft 3 kts 146°
2026-04-30 13:42 50.47234 19.07948 993 ft 0 kts 90°
2026-04-30 13:44 50.47234 19.07949 993 ft 0 kts 90°
2026-04-30 13:45 50.47234 19.08018 995 ft 6 kts 90°
2026-04-30 13:45 50.47233 19.08109 1000 ft 11 kts 90°
2026-04-30 13:45 50.47233 19.08255 999 ft 15 kts 90°
2026-04-30 13:46 50.47232 19.08410 1001 ft 14 kts 90°
2026-04-30 13:46 50.47233 19.08559 996 ft 13 kts 90°
2026-04-30 13:46 50.47233 19.08701 999 ft 13 kts 91°
2026-04-30 13:46 50.47232 19.08843 1001 ft 14 kts 90°
2026-04-30 13:47 50.47231 19.09019 1003 ft 17 kts 90°
2026-04-30 13:47 50.47231 19.09205 1004 ft 17 kts 90°
2026-04-30 13:47 50.47231 19.09420 1006 ft 21 kts 90°
2026-04-30 13:47 50.47231 19.09651 1007 ft 21 kts 90°
2026-04-30 13:48 50.47230 19.09897 1009 ft 23 kts 90°
2026-04-30 13:48 50.47286 19.10119 1011 ft 22 kts 51°
2026-04-30 13:48 50.47379 19.10309 1012 ft 22 kts 51°
2026-04-30 13:48 50.47491 19.10445 1013 ft 21 kts
2026-04-30 13:49 50.47591 19.10395 1013 ft 15 kts 291°
2026-04-30 13:49 50.47595 19.10356 1013 ft 2 kts 271°
2026-04-30 13:49 50.47596 19.10101 1011 ft 57 kts 270°
2026-04-30 13:49 50.47598 19.09098 1003 ft 124 kts 270°
2026-04-30 13:50 50.47599 19.07444 1051 ft 173 kts 272°
2026-04-30 13:50 50.47573 19.03591 2709 ft 181 kts 274°
2026-04-30 13:50 50.47579 19.01475 3262 ft 205 kts 274°
2026-04-30 13:51 50.47597 18.99076 3601 ft 230 kts 274°
2026-04-30 13:51 50.47588 18.96499 4289 ft 239 kts 273°
2026-04-30 13:51 50.47596 18.93821 4912 ft 254 kts 271°
2026-04-30 13:51 50.47071 18.91132 5611 ft 269 kts 236°
2026-04-30 13:52 50.45605 18.89250 6348 ft 280 kts 203°
2026-04-30 13:52 50.43750 18.88219 7181 ft 286 kts 198°
2026-04-30 13:52 50.41840 18.87235 7935 ft 292 kts 198°
2026-04-30 13:52 50.39892 18.86240 8765 ft 297 kts 197°
2026-04-30 13:53 50.37910 18.85222 9570 ft 302 kts 197°
2026-04-30 13:53 50.35897 18.84176 10368 ft 307 kts 197°
2026-04-30 13:53 50.33833 18.83097 10887 ft 322 kts 197°
2026-04-30 13:53 50.31628 18.81940 11075 ft 347 kts 197°
2026-04-30 13:54 50.29302 18.80715 11445 ft 363 kts 197°
2026-04-30 13:54 50.26886 18.79436 12088 ft 369 kts 198°
2026-04-30 13:54 50.24436 18.78137 12823 ft 373 kts 198°
2026-04-30 13:54 50.21959 18.76825 13547 ft 378 kts 198°
2026-04-30 13:55 50.19448 18.75496 14229 ft 384 kts 198°
2026-04-30 13:55 50.16898 18.74149 14864 ft 388 kts 198°
2026-04-30 13:55 50.14329 18.72792 15504 ft 392 kts 198°
2026-04-30 13:55 50.11728 18.71420 16156 ft 396 kts 197°
2026-04-30 13:56 50.09102 18.70037 16778 ft 401 kts 197°
2026-04-30 13:56 50.06445 18.68640 17383 ft 406 kts 197°
2026-04-30 13:56 50.03759 18.67228 18025 ft 410 kts 197°
2026-04-30 13:56 50.01040 18.65801 18628 ft 414 kts 197°
2026-04-30 13:57 49.98296 18.64363 19159 ft 419 kts 197°
2026-04-30 13:57 49.95526 18.62912 19712 ft 422 kts 197°
2026-04-30 13:57 49.92736 18.61451 20274 ft 424 kts 197°
2026-04-30 13:57 49.89928 18.59985 20812 ft 428 kts 197°
2026-04-30 13:58 49.87134 18.58321 21334 ft 433 kts 206°
2026-04-30 13:58 49.82341 18.52657 22369 ft 438 kts 231°
2026-04-30 13:58 49.80447 18.48948 22899 ft 440 kts 234°
2026-04-30 13:59 49.78605 18.45151 23390 ft 444 kts 235°
2026-04-30 13:59 49.76754 18.41305 23874 ft 447 kts 235°
2026-04-30 13:59 49.74877 18.37428 24285 ft 451 kts 235°
2026-04-30 13:59 49.72982 18.33550 24653 ft 455 kts 234°
2026-04-30 14:00 49.71058 18.29648 25032 ft 458 kts 234°
2026-04-30 14:00 49.67149 18.21788 25789 ft 465 kts 234°
2026-04-30 14:00 49.65167 18.17823 26131 ft 468 kts 234°
2026-04-30 14:01 49.63165 18.13824 26473 ft 472 kts 234°
2026-04-30 14:01 49.61152 18.09809 26829 ft 475 kts 234°
2026-04-30 14:01 49.59125 18.05771 27173 ft 478 kts 234°
2026-04-30 14:01 49.57103 18.01747 27466 ft 482 kts 234°
2026-04-30 14:02 49.55044 17.97657 27832 ft 484 kts 234°
2026-04-30 14:02 49.52974 17.93551 28168 ft 487 kts 234°
2026-04-30 14:02 49.50887 17.89416 28477 ft 490 kts 234°
2026-04-30 14:02 49.48788 17.85265 28821 ft 493 kts 234°
2026-04-30 14:03 49.46680 17.81100 29111 ft 496 kts 233°
2026-04-30 14:03 49.44551 17.76902 29409 ft 499 kts 233°
2026-04-30 14:03 49.42411 17.72689 29712 ft 501 kts 233°
2026-04-30 14:03 49.40259 17.68459 30022 ft 504 kts 233°
2026-04-30 14:04 49.38096 17.64213 30303 ft 506 kts 233°
2026-04-30 14:04 49.35925 17.59956 30552 ft 508 kts 233°
2026-04-30 14:04 49.33738 17.55681 30796 ft 510 kts 233°
2026-04-30 14:04 49.31394 17.51591 31055 ft 512 kts 225°
2026-04-30 14:05 49.28706 17.48003 31404 ft 511 kts 219°
2026-04-30 14:05 49.25954 17.44594 31825 ft 508 kts 219°
2026-04-30 14:05 49.23193 17.41222 32211 ft 506 kts 219°
2026-04-30 14:05 49.20445 17.37859 32550 ft 506 kts 219°
2026-04-30 14:06 49.17707 17.34480 32850 ft 505 kts 219°
2026-04-30 14:06 49.12269 17.27703 33514 ft 503 kts 220°
2026-04-30 14:07 49.06868 17.20947 34141 ft 502 kts 220°
2026-04-30 14:07 49.04171 17.17580 34438 ft 501 kts 220°
2026-04-30 14:07 49.01473 17.14219 34688 ft 500 kts 220°
2026-04-30 14:08 48.96097 17.07541 35169 ft 498 kts 220°
2026-04-30 14:08 48.93406 17.04207 35402 ft 498 kts 220°
2026-04-30 14:08 48.88039 16.97571 35855 ft 496 kts 220°
2026-04-30 14:09 48.85359 16.94262 36072 ft 496 kts 220°
2026-04-30 14:09 48.82683 16.90964 36269 ft 496 kts 220°
2026-04-30 14:09 48.77328 16.84377 36695 ft 495 kts 220°
2026-04-30 14:10 48.74624 16.81287 36887 ft 496 kts 213°
2026-04-30 14:10 48.71603 16.78739 37065 ft 496 kts 205°
2026-04-30 14:10 48.68385 16.76875 37235 ft 495 kts 195°
2026-04-30 14:10 48.65057 16.75521 37442 ft 494 kts 193°
2026-04-30 14:11 48.61730 16.74237 37660 ft 493 kts 193°
2026-04-30 14:11 48.58399 16.72965 37878 ft 492 kts 193°
2026-04-30 14:11 48.55086 16.71687 38055 ft 492 kts 194°
2026-04-30 14:11 48.51784 16.70394 38236 ft 491 kts 194°
2026-04-30 14:12 48.48468 16.69079 38387 ft 491 kts 194°
2026-04-30 14:12 48.41840 16.66425 38397 ft 493 kts 194°
2026-04-30 14:13 48.35248 16.63780 38387 ft 489 kts 194°
2026-04-30 14:13 48.28659 16.61145 38397 ft 485 kts 194°
2026-04-30 14:14 48.22204 16.58575 38393 ft 482 kts 194°
2026-04-30 14:14 48.15725 16.56002 38405 ft 479 kts 194°
2026-04-30 14:15 48.09288 16.53453 38406 ft 479 kts 194°
2026-04-30 14:15 48.02828 16.50902 38409 ft 480 kts 194°
2026-04-30 14:16 47.96368 16.48356 38397 ft 481 kts 194°
2026-04-30 14:16 47.89873 16.45804 38411 ft 483 kts 194°
2026-04-30 14:17 47.83359 16.43251 38394 ft 485 kts 194°
2026-04-30 14:17 47.76805 16.40688 38402 ft 487 kts 194°
2026-04-30 14:18 47.70239 16.38128 38394 ft 488 kts 194°
2026-04-30 14:18 47.60371 16.34293 38384 ft 489 kts 195°
2026-04-30 14:19 47.50487 16.30466 38384 ft 488 kts 195°
2026-04-30 14:20 47.43922 16.27933 38384 ft 487 kts 195°
2026-04-30 14:20 47.34099 16.24154 38386 ft 484 kts 195°
2026-04-30 14:21 47.27622 16.21671 38370 ft 483 kts 195°
2026-04-30 14:22 47.17882 16.17948 38368 ft 480 kts 195°
2026-04-30 14:22 47.08238 16.14276 38368 ft 479 kts 195°
2026-04-30 14:23 46.95343 16.09387 38367 ft 477 kts 195°
2026-04-30 14:24 46.85691 16.05743 38366 ft 477 kts 195°
2026-04-30 14:25 46.72818 16.00903 38359 ft 478 kts 195°
2026-04-30 14:26 46.63026 15.98772 38369 ft 478 kts 181°
2026-04-30 14:27 46.53045 15.98527 38352 ft 478 kts 181°
2026-04-30 14:27 46.47468 15.98320 38348 ft 478 kts 182°
2026-04-30 14:28 46.37531 15.97893 38347 ft 478 kts 182°
2026-04-30 14:28 46.30885 15.97601 38351 ft 477 kts 184°
2026-04-30 14:29 46.17705 15.95482 38355 ft 475 kts 188°
2026-04-30 14:31 46.01299 15.92654 38347 ft 474 kts 187°
2026-04-30 14:31 45.91466 15.91027 38344 ft 474 kts 188°
2026-04-30 14:32 45.81635 15.89403 38340 ft 473 kts 188°
2026-04-30 14:33 45.75149 15.88334 38347 ft 472 kts 188°
2026-04-30 14:33 45.65352 15.86723 38350 ft 472 kts 188°
2026-04-30 14:34 45.58820 15.85653 38336 ft 472 kts 188°
2026-04-30 14:34 45.52295 15.84586 38337 ft 472 kts 188°
2026-04-30 14:35 45.42487 15.82986 38336 ft 473 kts 188°
2026-04-30 14:36 45.35929 15.81920 38331 ft 474 kts 188°
2026-04-30 14:36 45.29368 15.80856 38331 ft 475 kts 189°
2026-04-30 14:37 45.22789 15.79792 38330 ft 476 kts 189°
2026-04-30 14:37 45.16198 15.78728 38324 ft 476 kts 189°
2026-04-30 14:38 45.09617 15.77668 38321 ft 477 kts 189°
2026-04-30 14:38 45.03026 15.76609 38317 ft 476 kts 189°
2026-04-30 14:39 44.96438 15.75553 38308 ft 476 kts 189°
2026-04-30 14:39 44.89849 15.74500 38310 ft 475 kts 189°
2026-04-30 14:40 44.79993 15.72928 38310 ft 475 kts 189°
2026-04-30 14:40 44.73470 15.71891 38305 ft 474 kts 189°
2026-04-30 14:41 44.66879 15.70845 38295 ft 474 kts 189°
2026-04-30 14:41 44.60358 15.69813 38290 ft 473 kts 189°
2026-04-30 14:42 44.53808 15.68778 38282 ft 473 kts 189°
2026-04-30 14:42 44.47264 15.67747 38274 ft 473 kts 189°
2026-04-30 14:43 44.40713 15.66717 38268 ft 473 kts 189°
2026-04-30 14:43 44.34175 15.65691 38257 ft 473 kts 189°
2026-04-30 14:44 44.27636 15.64668 38237 ft 473 kts 189°
2026-04-30 14:44 44.21105 15.63648 38221 ft 472 kts 189°
2026-04-30 14:45 44.14585 15.62632 38227 ft 471 kts 189°
2026-04-30 14:45 44.08069 15.61619 38213 ft 470 kts 189°
2026-04-30 14:46 44.01569 15.60611 38218 ft 469 kts 190°
2026-04-30 14:46 43.95094 15.59608 38212 ft 468 kts 190°
2026-04-30 14:47 43.88659 15.58615 38211 ft 467 kts 190°
2026-04-30 14:47 43.82168 15.57615 38206 ft 465 kts 190°
2026-04-30 14:48 43.75789 15.56634 38198 ft 464 kts 190°
2026-04-30 14:48 43.69384 15.55651 38198 ft 462 kts 191°
2026-04-30 14:49 43.63002 15.54674 38191 ft 461 kts 191°
2026-04-30 14:49 43.56627 15.53700 38187 ft 460 kts 191°
2026-04-30 14:50 43.47080 15.52244 38179 ft 460 kts 191°
2026-04-30 14:51 43.37508 15.50789 38174 ft 461 kts 191°
2026-04-30 14:52 43.27911 15.49335 38181 ft 463 kts 191°
2026-04-30 14:52 43.18310 15.47886 38179 ft 465 kts 191°
2026-04-30 14:53 43.08629 15.46429 38173 ft 467 kts 191°
2026-04-30 14:54 42.95656 15.44484 38171 ft 469 kts 192°
2026-04-30 14:55 42.89195 15.43533 38046 ft 472 kts 191°
2026-04-30 14:55 42.85909 15.43162 37740 ft 474 kts 189°
2026-04-30 14:55 42.79374 15.42596 37230 ft 468 kts 189°
2026-04-30 14:56 42.72870 15.42048 37170 ft 468 kts 189°
2026-04-30 14:57 42.63115 15.41159 37163 ft 469 kts 190°
2026-04-30 14:58 42.50120 15.39942 37166 ft 470 kts 190°
2026-04-30 14:58 42.40328 15.39030 37170 ft 470 kts 190°
2026-04-30 15:00 42.24022 15.37520 37167 ft 469 kts 191°
2026-04-30 15:01 42.11014 15.36321 37168 ft 468 kts 191°
2026-04-30 15:01 42.01325 15.35431 37167 ft 467 kts 191°
2026-04-30 15:02 41.94855 15.34838 37167 ft 466 kts 191°
2026-04-30 15:03 41.78697 15.33361 37169 ft 465 kts 191°
2026-04-30 15:04 41.62532 15.31891 37174 ft 465 kts 191°
2026-04-30 15:06 41.46413 15.30434 37179 ft 466 kts 191°
2026-04-30 15:07 41.33454 15.29267 37179 ft 467 kts 191°
2026-04-30 15:08 41.20459 15.28103 37168 ft 468 kts 191°
2026-04-30 15:08 41.10623 15.27221 36055 ft 472 kts 191°
2026-04-30 15:09 41.04177 15.26655 35218 ft 463 kts 192°
2026-04-30 15:09 40.97795 15.26092 34395 ft 456 kts 192°
2026-04-30 15:10 40.91500 15.25532 33479 ft 450 kts 192°
2026-04-30 15:11 40.79215 15.24444 31830 ft 435 kts 192°
2026-04-30 15:11 40.74230 15.24003 31171 ft 429 kts 192°
2026-04-30 15:12 40.65395 15.23223 29981 ft 420 kts 192°
2026-04-30 15:13 40.59607 15.22713 29162 ft 412 kts 192°
2026-04-30 15:14 40.48326 15.21721 27554 ft 400 kts 191°
2026-04-30 15:14 40.40047 15.21378 26523 ft 396 kts 181°
2026-04-30 15:16 40.26521 15.23580 24721 ft 389 kts 180°
2026-04-30 15:17 40.15833 15.25258 23124 ft 385 kts 180°
2026-04-30 15:18 40.02714 15.27297 21191 ft 373 kts 179°
2026-04-30 15:19 39.95059 15.28481 20086 ft 366 kts 179°